Skip Page Navigation
NASA JPL Caltech
NASA Logo - Jet Propulsion Laboratory + View the NASA Portal
+ Near-Earth Object (NEO) Program
Search JPL
JPL Home Earth Solar System Stars & Galaxies Technology
JPL Solar System Dynamics
BODIES ORBITS EPHEMERIDES TOOLS PHYSICAL DATA DISCOVERY FAQ SITE MAP
JPL Small-Body Database Browser
Search: [ help ]  
3201 Sijthoff (6560 P-L)
Classification: Main-belt Asteroid          SPK-ID: 2003201
Ephemeris | Orbit Diagram | Orbital Elements | Physical Parameters | Discovery Circumstances ]

[ show orbit diagram ]
Orbital Elements at Epoch 2456400.5 (2013-Apr-18.0) TDB
Reference: JPL 1 (heliocentric ecliptic J2000)
 Element Value Uncertainty (1-sigma)   Units 
e .08692370652284966 5.8401e-08  
a 2.257845353038084 9.6172e-09 AU
q 2.061585066196622 1.3126e-07 AU
i 2.990488749132245 5.1717e-06 deg
node 109.4948402403768 0.00011846 deg
peri 53.3953730828782 0.00012279 deg
M 16.40060684282965 3.2931e-05 deg
tp 2456344.045686257988
(2013-Feb-20.54568626)
0.00011339 JED
period 1239.195179903335
3.39
7.9175e-06
2.168e-08
d
yr
n .2905111364523564 1.8561e-09 deg/d
Q 2.454105639879546 1.0453e-08 AU
  Orbit Determination Parameters
   # obs. used (total)      1293  
   data-arc span      21285 days (58.28 yr)  
   first obs. used      1954-12-22  
   last obs. used      2013-04-01  
   planetary ephem.      DE405  
   SB-pert. ephem.      SB405-CPV-2  
   condition code      0  
   fit RMS      .52179  
   data source      ORB  
   producer      Otto Matic  
   solution date      2013-Apr-29 12:56:20  

Additional Information
 Earth MOID = 1.07107 AU 
 T_jup = 3.615 
[ show covariance matrix ]

Ephemeris | Orbit Diagram | Orbital Elements | Physical Parameters | Discovery Circumstances ]

Physical Parameter Table
Parameter Symbol Value Units Sigma Reference Notes
absolute magnitude H 13.7 mag n/a PDS3 (MPC 17268)  

3201 Sijthoff (6560 P-L)          Discovered 1960-Sep-24 by PLS at Palomar (675)
These planets have all been discovered as a result of the Palomar survey of faint minor planets and subsequently identified with planets observed at other oppositions. In Sept. and Oct. 1960, T. Gehrels exposed 130 plates with the 122 cm Schmidt camera at Palomar. In the following years C. J. van Houten and I. van Houten-Groeneveld measured these plates astrometrically and photometrically at Leiden. P. Herget, Cincinnati, computed the orbits of the planets found on the NORC computer, Dahlgren, Virginia, USA.
Note: "planet" implies "minor planet"
Reference: DISCOVERY.DBLast Updated: 2003-08-29

Alternate Designations
 6560 P-L = 1969 FE = 1979 DP 
Ephemeris | Orbit Diagram | Orbital Elements | Physical Parameters | Discovery Circumstances ]
ABOUT SSD CREDITS/AWARDS PRIVACY/COPYRIGHT GLOSSARY LINKS
FirstGov 2013-May-20 15:56 UT
(server date/time)  
NASA Home Page
Site Manager:   Donald K. Yeomans
Webmaster  Alan B. Chamberlin